KMDW

Chicago Midway International Airport

ICAO Code KMDW
IATA Code MDW
Name Chicago Midway International Airport
Location Chicago, Illinois, US
Elevation 620 Feet / 189 Meters
Latitude 41.78599930
Longitude -87.75240326
METAR KMDW 240453Z 23005KT 10SM SCT090 BKN160 M11/M17 A2992 RMK AO2 SLP149 T11061167
Extra information Display Charts and CFS
Display NOTAMS
Runway Length Width Surface Elevation
04L 5507 ft 150 ft ASP 617 ft
04R 6446 ft 150 ft PEM 619 ft
13C 6522 ft 150 ft CON 608 ft
13L 5141 ft 150 ft ASP 606 ft
13R 3859 ft 60 ft CON 607 ft
22R 5507 ft 150 ft ASP 606 ft
22L 6446 ft 150 ft PEM 606 ft
31C 6522 ft 150 ft CON 612 ft
31R 5141 ft 150 ft ASP 608 ft
31L 3859 ft 60 ft CON 613 ft